Home   Weather   Raleigh   Past weeks

Flag for USA Past Weather in Raleigh, North Carolina, USA — Yesterday and Last 2 Weeks

59 °F

Passing clouds.

Feels Like: 60 °F
Forecast: 42 / 66 °F
Wind: 3 mph from Southeast

Location: Raleigh-Durham International Airport

Current Time: Oct 26, 2016 at 7:23:36 PM

Latest Report: Oct 26, 2016 at 6:51 PM

Visibility: 10 mi

Pressure: 30.35 "Hg

Humidity: 60%

Dew Point: 45 °F

Location of RaleighLocation

Past Weather in Raleigh — Graph


Raleigh Temperature Yesterday

Maximum temperature yesterday: 66 °F (at 3:51 PM)
Minimum temperature yesterday: 44 °F (at 7:51 AM)
Average temperature yesterday: 54 °F

High & Low Weather Summary for the Past Weeks

High87 °F (Oct 19, 2:51 PM)100% (Oct 13, 7:51 AM)30.44 "Hg (Oct 13, 7:51 AM)
Low39 °F (Oct 26, 6:51 AM)32% (Oct 24, 3:51 PM)29.62 "Hg (Oct 21, 2:51 PM)
Average62 °F72%30.13 "Hg
* Reported Oct 11 5:51 PM — Oct 26 5:51 PM, Raleigh, Weather by CustomWeather, © 2016

Note: Actual official high and low records may vary slightly from our data, if they occured in-between our weather recording intervals... More about our weather records


Raleigh Weather History for the Previous 24 Hours

Scroll right to see more
Time TempWeatherWind HumidityBarometerVisibility
5:51 PM
Wed, Oct 26
64 °FPassing clouds.6 mph45%30.33 "Hg10 mi
4:51 PM66 °FPassing clouds.5 mph37%30.33 "Hg10 mi
3:51 PM67 °FPassing clouds.6 mph36%30.34 "Hg10 mi
2:51 PM67 °FPassing clouds.7 mph37%30.36 "Hg10 mi
1:51 PM66 °FPassing clouds.7 mph40%30.39 "Hg10 mi
12:51 PM63 °FPassing clouds.6 mph40%30.42 "Hg10 mi
11:51 AM62 °FPassing clouds.No wind48%30.44 "Hg10 mi
10:51 AM57 °FPassing clouds.No wind55%30.44 "Hg10 mi
9:51 AM53 °FPassing clouds.No wind69%30.43 "Hg10 mi
8:51 AM47 °FPassing clouds.No wind86%30.43 "Hg10 mi
7:51 AM41 °FPassing clouds.No wind96%30.41 "Hg10 mi
6:51 AM39 °FLight fog.No wind96%30.40 "Hg10 mi
5:51 AM41 °FClear.No wind96%30.39 "Hg10 mi
4:51 AM40 °FClear.No wind97%30.37 "Hg10 mi
3:51 AM43 °FClear.No wind93%30.37 "Hg10 mi
2:51 AM42 °FClear.No wind92%30.37 "Hg10 mi
1:51 AM46 °FPassing clouds.No wind89%30.37 "Hg10 mi
12:51 AM45 °FPassing clouds.3 mph93%30.37 "Hg10 mi
11:51 PM
Tue, Oct 25
46 °FPassing clouds.No wind93%30.37 "Hg10 mi
10:51 PM46 °FPassing clouds.No wind89%30.36 "Hg10 mi
9:51 PM47 °FPassing clouds.No wind90%30.35 "Hg10 mi
8:51 PM49 °FPassing clouds.No wind84%30.34 "Hg10 mi
7:51 PM53 °FPassing clouds.No wind74%30.33 "Hg10 mi
Weather by CustomWeather, © 2016

See weather overviewHow to use our weather pages